Weather History for KGFA - May, 2014

Change the Weather History Date:

Monday, May 5, 2014

  Actual Average (KGTF) Record (KGTF)
Temperature  
Mean Temperature 48 °F 49 °F  
Max Temperature 59 °F 62 °F 88 °F (1911)
Min Temperature 37 °F 35 °F 26 °F (1967)
Degree Days  
Heating Degree Days 17 17  
Month to date heating degree days 86  
Since 1 July heating degree days 7203  
Cooling Degree Days 0 0  
Month to date cooling degree days 0  
Year to date cooling degree days 1  
Moisture  
Dew Point 36 °F    
Average Humidity 65    
Maximum Humidity 86    
Minimum Humidity 41    
Precipitation  
Precipitation 0.02 in 0.05 in 0.57 in (1971)
Month to date precipitation 0.26  
Year to date precipitation 3.57  
Snow  
Snow 0.00 in 0.10 in 2.40 in (2010)
Month to date snowfall 0.7  
Since 1 July snowfall 61.2  
Snow Depth -    
Sea Level Pressure  
Sea Level Pressure 29.89 in    
Wind  
Wind Speed 6 mph (West)    
Max Wind Speed 14 mph    
Max Gust Speed -    
Visibility 10 miles    
Events Rain    
T = Trace of Precipitation, MM = Missing Value Source: NWS Daily Summary

Daily Weather History Graph

Daily Weather History Graph

Search for Another Location

Airport or City:

Trip Planner

Search our weather history database for the weather conditions in past years. The results will help you decide how hot, cold, wet, or windy it might be!

Date:

Astronomy

May. 05, 2014 Rise Set
Actual Time 6:01 AM MDT 8:42 PM MDT
Civil Twilight 5:26 AM MDT 9:17 PM MDT
Nautical Twilight 4:42 AM MDT 10:01 PM MDT
Astronomical Twilight 3:50 AM MDT 10:54 PM MDT
Moon 11:26 AM MDT 1:27 AM MDT
Length of Visible Light 15h 50m
Length of Day
14h 40m
Waxing Crescent, 37% of the Moon is Illuminated
May 5
Waxing Crescent
May 6
First Quarter
May 14
Full
May 21
Last Quarter
May 28
New

Hourly Weather History & Observations

Time (MDT) Temp. Windchill Dew Point Humidity Pressure Visibility Wind Dir Wind Speed Gust Speed Precip Events Conditions
12:56 AM 41.0 °F 36.4 °F 36.0 °F 82% 29.89 in 10.0 mi SSW 6.9 mph - N/A   Clear
1:56 AM 37.9 °F 31.5 °F 34.0 °F 86% 29.89 in 10.0 mi South 9.2 mph - N/A   Clear
2:56 AM 42.1 °F 39.2 °F 36.0 °F 79% 29.88 in 10.0 mi SW 4.6 mph - N/A   Overcast
3:56 AM 44.1 °F 41.5 °F 34.0 °F 68% 29.91 in 10.0 mi WSW 4.6 mph - N/A   Overcast
4:56 AM 42.1 °F 39.2 °F 35.1 °F 76% 29.90 in 10.0 mi SSW 4.6 mph - N/A   Overcast
5:56 AM 44.1 °F 41.5 °F 35.1 °F 71% 29.89 in 10.0 mi SSW 4.6 mph - N/A   Overcast
6:56 AM 43.0 °F 40.3 °F 37.0 °F 80% 29.90 in 10.0 mi SSW 4.6 mph - 0.01 in   Overcast
7:56 AM 46.0 °F - 35.1 °F 66% 29.91 in 10.0 mi Calm Calm - N/A   Mostly Cloudy
8:56 AM 48.0 °F - 34.0 °F 58% 29.91 in 10.0 mi West 5.8 mph - N/A   Mostly Cloudy
9:56 AM 51.1 °F - 36.0 °F 56% 29.91 in 10.0 mi Variable 4.6 mph - N/A   Clear
10:56 AM 54.0 °F - 35.1 °F 49% 29.89 in 10.0 mi WNW 8.1 mph - N/A   Partly Cloudy
11:56 AM 54.0 °F - 35.1 °F 49% 29.89 in 10.0 mi West 8.1 mph - N/A   Partly Cloudy
12:56 PM 55.0 °F - 34.0 °F 45% 29.90 in 10.0 mi WNW 9.2 mph - N/A   Scattered Clouds
1:56 PM 55.9 °F - 34.0 °F 44% 29.88 in 10.0 mi West 8.1 mph - N/A   Clear
2:56 PM 57.9 °F - 34.0 °F 41% 29.85 in 10.0 mi WSW 6.9 mph - N/A   Clear
3:56 PM 59.0 °F - 35.1 °F 41% 29.83 in 10.0 mi Calm Calm - N/A   Scattered Clouds
4:56 PM 53.1 °F - 42.1 °F 66% 29.84 in 10.0 mi North 13.8 mph - 0.01 in Rain Light Rain
5:56 PM 54.0 °F - 37.9 °F 55% 29.87 in 10.0 mi North 12.7 mph - 0.00 in   Mostly Cloudy
6:56 PM 54.0 °F - 39.0 °F 57% 29.88 in 10.0 mi North 8.1 mph - N/A   Overcast
7:56 PM 51.1 °F - 39.9 °F 66% 29.87 in 10.0 mi NE 3.5 mph - N/A   Overcast
8:56 PM 46.9 °F - 39.9 °F 77% 29.89 in 10.0 mi ENE 3.5 mph - N/A   Overcast
9:56 PM 46.0 °F - 39.0 °F 76% 29.90 in 10.0 mi Calm Calm - N/A   Clear
10:56 PM 43.0 °F - 37.9 °F 82% 29.90 in 10.0 mi Calm Calm - N/A   Clear
11:56 PM 46.0 °F 44.8 °F 39.9 °F 79% 29.90 in 10.0 mi WNW 3.5 mph - N/A   Overcast